SCP
0 0 0 0 0 0 0 0 0 0 0 0 0 0 0 0 0 0 0 0 0 0 0 0 0 0 0 0 0 0 0 0
0 0 0 0 0 0 0 0 0 0 0 0 0 0 0 0 0 0 0 0 0 0 0 0 0 0 0 0 0 0 0 0
0 0 0 0 0 0 0 0 0 0 0 0 0 0 0 0 0 0 0 0 0 0 0 0 0 0 0 0 0 0 0 0
0 0 0 0 0 0 0 0 0 0 0 0 0 0 0 0 0 0 0 0 0 0 0 0 0 0 0 0 0 0 0 0
0 0 0 0 0 0 0 0 0 0 0 0 0 0 0 0 0 0 0 0 0 0 0 0 0 0 0 0 0 0 0 0
0 0 0 0 0 0 0 0 0 0 0 0 0 0 0 0 0 0 0 0 0 0 0 0 0 0 0 0 0 0 0 0
0 0 0 0 0 0 0 0 0 0 0 0 0 0 0 0 0 0 0 0 0 0 0 0 0 0 0 0 0 0 0 0
0 0 0 0 0 0 0 0 0 0 0 0 0 0 0 0 0 0 0 0 0 0 0 0 0 0 0 0 0 0 0 0
0 0 0 0 0 0 0 0 0 0 0 0 0 0 0 0 0 0 0 0 0 0 0 0 0 0 0 0 0 0 0 0
0 0 0 0 0 0 0 0 0 0 0 0 0 0 0 0 0 0 0 0 0 0 0 0 0 0 0 0 0 0 0 0
0 0 0 0 0 0 0 0 0 0 0 0 0 0 0 0 0 0 0 0 0 0 0 0 0 0 0 0 0 0 0 0
0 0 0 0 0 0 0 0 0 0 0 0 0 0 0 0 0 0 0 0 0 0 0 0 0 0 0 0 0 0 0 0
0 0 0 0 0 0 0 0 0 0 0 0 0 0 0 0 0 0 0 0 0 0 0 0 0 0 0 0 0 0 0 0
0 0 0 0 0 0 0 0 0 0 0 0 0 0 0 0 0 0 0 0 0 0 0 0 0 0 0 0 0 0 0 0
0 0 0 0 0 0 0 0 0 0 0 0 0 0 0 0 0 0 0 0 0 0 0 0 0 0 0 0 0 0 0 0
0 0 0 0 0 0 0 0 0 0 0 0 0 0 0 0 0 0 0 0 0 0 0 0 0 0 0 0 0 0 0 0
0 0 0 0 0 0 0 0 0 0 0 0 0 0 0 0 0 0 0 0 0 0 0 0 0 0 0 0 0 0 0 0
0 0 0 0 0 0 0 0 0 0 0 0 0 0 0 0 0 0 0 0 0 0 0 0 0 0 0 0 0 0 0 0
0 0 0 0 0 0 0 0 0 0 0 0 0 0 0 0 0 0 0 0 0 0 0 0 0 0 0 0 0 0 0 0
0 0 0 0 0 0 0 0 0 0 0 0 0 0 0 0 0 0 0 0 0 0 0 0 0 0 0 0 0 0 0 0
Wind_Speed_500mb
72 72 72 70 67 67 67 69 68 68 72 76 75 73 70 65 53 48 45 46 43 38 34 30 26 22 19 16 13 13 16 19
62 64 63 63 63 63 64 62 62 61 59 64 65 71 68 68 53 50 48 48 44 40 35 30 26 22 18 15 13 14 17 22
56 61 59 58 57 56 56 54 52 49 49 54 60 68 70 65 59 54 53 49 46 41 36 31 26 20 17 15 14 16 19 23
50 57 56 55 55 54 51 47 45 43 44 56 63 69 66 66 57 56 55 52 49 43 36 30 24 21 16 14 15 18 21 22
50 53 52 52 52 50 48 48 46 46 53 59 66 67 67 61 60 60 57 53 47 41 34 28 25 20 15 14 16 17 18 21
50 52 52 53 53 52 50 50 52 56 60 63 64 66 65 64 64 61 57 51 44 38 33 29 22 18 14 14 15 16 17 18
50 53 57 58 58 58 56 55 57 61 63 66 68 70 69 68 65 62 56 49 43 37 33 28 22 18 15 15 15 15 16 17
50 56 59 62 63 64 59 59 61 63 67 72 73 73 72 69 65 60 53 47 43 38 32 26 22 18 16 17 15 15 16 16
54 57 62 65 67 64 65 67 69 69 72 76 75 74 72 69 63 58 53 48 42 37 31 25 21 20 19 19 17 17 17 21
58 61 63 65 70 71 74 75 77 77 78 79 80 78 76 70 65 60 55 47 41 35 30 26 23 22 21 22 21 19 20 25
68 66 65 63 66 76 81 86 90 87 87 85 83 81 77 71 67 60 52 46 41 36 31 25 23 23 25 25 28 24 26 28
59 66 68 65 63 72 87 95 92 91 91 89 87 82 76 71 66 61 55 48 42 36 29 25 26 25 30 36 30 28 30 30
49 49 51 59 62 67 79 86 95 94 93 92 90 86 80 75 70 64 56 50 44 36 27 27 19 34 46 37 34 32 34 33
37 43 46 50 55 64 69 78 88 94 97 97 94 88 84 80 73 66 58 49 43 33 27 18 32 49 43 39 36 37 38 35
25 28 32 39 46 54 60 64 73 89 98 98 97 94 87 80 73 65 56 50 45 29 23 29 48 48 43 40 37 37 36 35
20 20 22 28 36 45 51 54 64 79 91 98 99 95 90 83 72 62 53 41 30 30 31 49 50 43 42 38 36 38 36 37
25 23 22 23 29 38 45 52 60 72 85 97 100 96 90 80 71 59 49 40 35 41 50 51 46 44 41 38 38 36 34 38
28 26 24 26 28 32 40 51 58 65 79 95 102 98 89 78 66 56 44 36 45 50 58 54 49 45 42 41 37 33 36 38
28 29 30 31 31 32 40 49 56 63 74 92 102 94 83 73 62 51 40 50 54 64 61 56 52 47 45 42 37 37 37 41
29 28 31 35 35 34 39 47 55 64 71 85 93 86 76 67 56 53 41 57 66 63 62 58 51 49 48 45 41 39 42 42
Wind_Direction_500mb
231 227 222 225 229 233 238 243 245 243 238 234 229 224 228 226 231 232 223 221 220 223 213 208 210 216 226 235 254 280 298 309
225 220 221 227 233 241 244 245 240 236 232 227 222 222 221 222 220 219 215 214 217 209 207 208 215 217 223 244 265 289 307 315
223 224 227 234 239 243 245 241 236 227 223 214 210 217 218 218 228 227 210 210 206 205 206 210 211 220 233 249 280 301 312 315
216 222 228 233 237 236 235 233 229 222 208 201 206 209 214 220 227 215 205 204 202 204 206 207 214 225 238 264 288 301 309 317
221 225 231 235 236 235 230 228 220 210 203 203 203 207 214 227 215 202 199 203 204 204 205 209 217 229 245 269 288 302 313 317
231 234 235 235 235 233 228 224 215 208 205 205 206 209 213 212 200 198 200 201 203 206 209 216 222 233 251 275 294 300 306 312
242 240 240 238 237 232 226 221 217 212 209 207 211 211 204 200 199 199 201 200 203 208 214 219 224 232 251 267 274 286 297 311
255 251 246 242 238 232 227 220 215 212 211 210 207 202 199 200 201 202 202 203 207 214 220 222 227 239 251 259 264 274 288 306
268 261 257 244 239 234 228 221 217 210 207 206 204 203 202 202 203 203 203 207 213 219 223 227 233 246 251 250 258 270 284 303
275 270 265 253 241 234 229 223 220 215 211 209 207 206 205 205 205 205 207 212 218 222 225 232 244 254 252 248 252 267 289 301
273 272 266 263 247 236 232 228 224 220 216 213 211 210 209 208 207 208 210 214 219 222 227 238 255 264 254 253 258 270 286 299
270 270 270 265 256 241 235 232 230 223 219 215 214 213 212 211 209 210 211 215 218 220 227 250 259 259 275 260 264 274 283 293
272 274 274 266 257 248 241 237 231 226 222 218 215 213 211 210 210 209 213 216 216 216 236 250 257 288 264 260 267 274 281 288
274 270 267 265 259 253 250 241 234 227 222 218 215 212 211 210 210 211 213 215 214 225 233 265 275 261 257 261 266 272 280 288
304 293 278 267 261 257 253 249 240 230 223 218 214 211 210 210 212 214 216 215 216 215 263 268 259 253 257 262 269 275 284 291
328 315 298 278 267 259 255 249 240 232 225 217 213 212 211 210 212 214 217 218 222 264 257 255 249 255 257 263 270 277 286 295
335 325 312 291 271 260 253 247 241 232 224 218 213 212 210 209 209 210 209 217 251 251 250 245 248 250 255 263 271 283 294 297
325 320 310 297 283 267 255 248 243 237 227 218 214 211 208 207 210 209 212 236 253 252 245 244 247 249 255 262 274 283 288 295
314 309 304 296 287 276 261 250 243 238 231 222 214 210 208 211 210 213 236 257 253 247 244 244 245 249 255 265 273 277 286 289
321 320 311 304 295 279 266 253 243 236 230 221 214 209 210 209 213 231 245 247 244 239 240 243 247 252 259 265 271 277 280 286
Wind_Speed_850mb
72 72 72 70 67 67 67 69 68 68 72 76 75 73 70 65 53 48 45 46 43 38 34 30 26 22 19 16 13 13 16 19
62 64 63 63 63 63 64 62 62 61 59 64 65 71 68 68 53 50 48 48 44 40 35 30 26 22 18 15 13 14 17 22
56 61 59 58 57 56 56 54 52 49 49 54 60 68 70 65 59 54 53 49 46 41 36 31 26 20 17 15 14 16 19 23
50 57 56 55 55 54 51 47 45 43 44 56 63 69 66 66 57 56 55 52 49 43 36 30 24 21 16 14 15 18 21 22
50 53 52 52 52 50 48 48 46 46 53 59 66 67 67 61 60 60 57 53 47 41 34 28 25 20 15 14 16 17 18 21
50 52 52 53 53 52 50 50 52 56 60 63 64 66 65 64 64 61 57 51 44 38 33 29 22 18 14 14 15 16 17 18
50 53 57 58 58 58 56 55 57 61 63 66 68 70 69 68 65 62 56 49 43 37 33 28 22 18 15 15 15 15 16 17
50 56 59 62 63 64 59 59 61 63 67 72 73 73 72 69 65 60 53 47 43 38 32 26 22 18 16 17 15 15 16 16
54 57 62 65 67 64 65 67 69 69 72 76 75 74 72 69 63 58 53 48 42 37 31 25 21 20 19 19 17 17 17 21
58 61 63 65 70 71 74 75 77 77 78 79 80 78 76 70 65 60 55 47 41 35 30 26 23 22 21 22 21 19 20 25
68 66 65 63 66 76 81 86 90 87 87 85 83 81 77 71 67 60 52 46 41 36 31 25 23 23 25 25 28 24 26 28
59 66 68 65 63 72 87 95 92 91 91 89 87 82 76 71 66 61 55 48 42 36 29 25 26 25 30 36 30 28 30 30
49 49 51 59 62 67 79 86 95 94 93 92 90 86 80 75 70 64 56 50 44 36 27 27 19 34 46 37 34 32 34 33
37 43 46 50 55 64 69 78 88 94 97 97 94 88 84 80 73 66 58 49 43 33 27 18 32 49 43 39 36 37 38 35
25 28 32 39 46 54 60 64 73 89 98 98 97 94 87 80 73 65 56 50 45 29 23 29 48 48 43 40 37 37 36 35
20 20 22 28 36 45 51 54 64 79 91 98 99 95 90 83 72 62 53 41 30 30 31 49 50 43 42 38 36 38 36 37
25 23 22 23 29 38 45 52 60 72 85 97 100 96 90 80 71 59 49 40 35 41 50 51 46 44 41 38 38 36 34 38
28 26 24 26 28 32 40 51 58 65 79 95 102 98 89 78 66 56 44 36 45 50 58 54 49 45 42 41 37 33 36 38
28 29 30 31 31 32 40 49 56 63 74 92 102 94 83 73 62 51 40 50 54 64 61 56 52 47 45 42 37 37 37 41
29 28 31 35 35 34 39 47 55 64 71 85 93 86 76 67 56 53 41 57 66 63 62 58 51 49 48 45 41 39 42 42
Wind_Direction_850mb
231 227 222 225 229 233 238 243 245 243 238 234 229 224 228 226 231 232 223 221 220 223 213 208 210 216 226 235 254 280 298 309
225 220 221 227 233 241 244 245 240 236 232 227 222 222 221 222 220 219 215 214 217 209 207 208 215 217 223 244 265 289 307 315
223 224 227 234 239 243 245 241 236 227 223 214 210 217 218 218 228 227 210 210 206 205 206 210 211 220 233 249 280 301 312 315
216 222 228 233 237 236 235 233 229 222 208 201 206 209 214 220 227 215 205 204 202 204 206 207 214 225 238 264 288 301 309 317
221 225 231 235 236 235 230 228 220 210 203 203 203 207 214 227 215 202 199 203 204 204 205 209 217 229 245 269 288 302 313 317
231 234 235 235 235 233 228 224 215 208 205 205 206 209 213 212 200 198 200 201 203 206 209 216 222 233 251 275 294 300 306 312
242 240 240 238 237 232 226 221 217 212 209 207 211 211 204 200 199 199 201 200 203 208 214 219 224 232 251 267 274 286 297 311
255 251 246 242 238 232 227 220 215 212 211 210 207 202 199 200 201 202 202 203 207 214 220 222 227 239 251 259 264 274 288 306
268 261 257 244 239 234 228 221 217 210 207 206 204 203 202 202 203 203 203 207 213 219 223 227 233 246 251 250 258 270 284 303
275 270 265 253 241 234 229 223 220 215 211 209 207 206 205 205 205 205 207 212 218 222 225 232 244 254 252 248 252 267 289 301
273 272 266 263 247 236 232 228 224 220 216 213 211 210 209 208 207 208 210 214 219 222 227 238 255 264 254 253 258 270 286 299
270 270 270 265 256 241 235 232 230 223 219 215 214 213 212 211 209 210 211 215 218 220 227 250 259 259 275 260 264 274 283 293
272 274 274 266 257 248 241 237 231 226 222 218 215 213 211 210 210 209 213 216 216 216 236 250 257 288 264 260 267 274 281 288
274 270 267 265 259 253 250 241 234 227 222 218 215 212 211 210 210 211 213 215 214 225 233 265 275 261 257 261 266 272 280 288
304 293 278 267 261 257 253 249 240 230 223 218 214 211 210 210 212 214 216 215 216 215 263 268 259 253 257 262 269 275 284 291
328 315 298 278 267 259 255 249 240 232 225 217 213 212 211 210 212 214 217 218 222 264 257 255 249 255 257 263 270 277 286 295
335 325 312 291 271 260 253 247 241 232 224 218 213 212 210 209 209 210 209 217 251 251 250 245 248 250 255 263 271 283 294 297
325 320 310 297 283 267 255 248 243 237 227 218 214 211 208 207 210 209 212 236 253 252 245 244 247 249 255 262 274 283 288 295
314 309 304 296 287 276 261 250 243 238 231 222 214 210 208 211 210 213 236 257 253 247 244 244 245 249 255 265 273 277 286 289
321 320 311 304 295 279 266 253 243 236 230 221 214 209 210 209 213 231 245 247 244 239 240 243 247 252 259 265 271 277 280 286